Location: Sedan
(39.2354°N, 78.5718°W)
Time: 13:04:08
(UTC+00:00)

Envisat - Pass Details

Date: 08 December 2021
Orbit: 764 x 766 km, 98.2° (Epoch: 19 January)

Event Time Altitude Azimuth Distance (km) Brightness Sun altitude
Rises 22:38:52 0° 209° (SSW) 3,218 7.1 -9.2°
Reaches altitude 10° 22:42:02 10° 230° (SW) 2,298 6.8 -9.7°
Maximum altitude 22:45:09 16° 268° (W) 1,899 6.2 -10.3°
Drops below altitude 10° 22:48:18 10° 307° (NW) 2,308 5.9 -10.9°
Sets 22:51:30 0° 328° (NNW) 3,240 6.4 -11.5°
